Flag for Peru Weather past 2 weeks in Iquitos, Loreto, Peru

Now
75 °F

Passing clouds.


Feels Like: 74 °F
Forecast: 73 / 93 °F
Wind: No wind

Location: Iquitos Airport

Current Time: Sep 2, 2015 at 11:37:31 PM

Latest Report: Sep 2, 2015 at 10:00 PM


Visibility: N/A

Pressure: 29.95 "Hg

Humidity: 94%

Dew point: 73 °F

Location of IquitosLocation

Historic Weather in Iquitos — Graph

°F

Iquitos temperature yesterday

Maximum temperature yesterday: 82 °F (at 3:00 PM)
Minimum temperature yesterday: 70 °F (at 9:00 AM)
Average temperature yesterday: 75 °F

Past Weeks' High & Low Weather Summary

 TemperatureHumidityPressure
High95 °F (Aug 26, 2:00 PM)100% (Aug 18, 10:00 PM)30.07 "Hg (Aug 18, 10:00 PM)
Low70 °F (Aug 19, 4:00 AM)49% (Aug 21, 3:00 PM)29.74 "Hg (Aug 23, 4:00 PM)
Average79 °F83%29.89 "Hg
* Reported Aug 18 10:00 PM — Sep 2 10:00 PM, Iquitos, Weather by CustomWeather, © 2015

Note: Actual official high and low records may vary slightly from our data, if they occured in-between our weather recording intervals... More about our weather records

Advertising

Iquitos weather history for previous 24 hours

 ConditionsComfort  
Time TempWeatherWind HumidityBarometerVisibility
10:00 PM
Wed, Sep 2
75 °FPassing clouds.No wind94%29.95 "HgN/A
9:00 PM73 °FPassing clouds.6 mph94%29.92 "HgN/A
8:00 PM75 °FScattered showers. Passing clouds.10 mph89%29.92 "HgN/A
7:00 PM81 °FPassing clouds.8 mph74%29.89 "HgN/A
6:00 PM86 °FPassing clouds.3 mph66%29.86 "HgN/A
5:00 PM90 °FScattered clouds.3 mph59%29.86 "HgN/A
4:00 PM90 °FPartly sunny.5 mph55%29.86 "HgN/A
3:00 PM88 °FPartly sunny.5 mph59%29.89 "HgN/A
2:00 PM90 °FScattered clouds.5 mph55%29.92 "HgN/A
1:00 PM88 °FScattered clouds.5 mph62%29.98 "HgN/A
12:00 PM86 °FScattered clouds.3 mph66%30.01 "HgN/A
11:00 AM84 °FScattered clouds.5 mph66%30.01 "HgN/A
10:00 AM82 °FScattered clouds.3 mph70%30.04 "HgN/A
9:00 AM79 °FScattered clouds.6 mph79%30.04 "HgN/A
8:00 AM75 °FBroken clouds.3 mph83%30.04 "HgN/A
7:00 AM73 °FPartly sunny.No wind94%30.01 "HgN/A
6:00 AM72 °FFog.No wind100%29.98 "Hg1 mi
5:00 AM72 °FFog.5 mph100%29.95 "Hg1 mi
4:00 AM73 °FMild.5 mph94%29.95 "HgN/A
3:00 AM73 °FOvercast.No wind94%29.98 "HgN/A
2:00 AM73 °FOvercast.No wind94%29.98 "HgN/A
1:00 AM73 °FPassing clouds.No wind94%30.01 "HgN/A
12:00 AM73 °FPassing clouds.No wind94%30.01 "HgN/A
11:00 PM
Tue, Sep 1
72 °FPassing clouds.No wind94%30.01 "HgN/A
Weather by CustomWeather, © 2015

See weather overviewHow to use our weather pages